Hourly Data Report for April 06, 2021

MIRAMICHI RCS
NEW BRUNSWICK
Current Station Operator: ECCC - MSC

47°00'34.000" N
65°27'54.000" W
33.00 m
8100989
71744
ACQ

Download Data

Hourly Data (April 2021)
Hourly Data Report for April 6, 2021
TIME
LST
Temp Definition
°C
Dew Point Definition
°C
Rel Hum Definition
%
Precip. Amount Definition
mm

Wind Dir Definition
10's deg

Wind Spd Definition
km/h
Visibility Definition
km
Stn Press Definition
kPa
Hmdx Definition


Wind Chill Definition


Weather Definition


00:00 3.1 2.8 98 LegendMM 3 8   100.46     LegendNANA
01:00 3.2 2.6 96 LegendMM 2 10   100.43     LegendNANA
02:00 3.3 2.9 97 LegendMM 3 10   100.43     LegendNANA
03:00 3.2 2.8 97 LegendMM 2 10   100.39     LegendNANA
04:00 3.2 2.6 96 LegendMM 3 10   100.43     LegendNANA
05:00 3.0 2.6 97 LegendMM 2 9   100.44     LegendNANA
06:00 2.9 2.3 96 LegendMM 3 10   100.50     LegendNANA
07:00 3.0 2.5 96 LegendMM 4 12   100.57     LegendNANA
08:00 3.1 2.4 95 LegendMM 4 11   100.61     LegendNANA
09:00 3.6 3.0 95 LegendMM 3 13   100.67     LegendNANA
10:00 4.2 3.2 93 LegendMM 4 13   100.73     LegendNANA
11:00 5.2 3.8 91 LegendMM 3 14   100.72     LegendNANA
12:00 5.8 4.0 89 LegendMM 3 12   100.72     LegendNANA
13:00 6.1 4.8 92 LegendMM 3 13   100.73     LegendNANA
14:00 5.6 4.9 95 LegendMM 2 9   100.76     LegendNANA
15:00 5.4 4.2 92 LegendMM 2 11   100.76     LegendNANA
16:00 5.4 4.0 90 LegendMM 3 12   100.78     LegendNANA
17:00 5.6 3.9 89 LegendMM 2 12   100.81     LegendNANA
18:00 5.3 3.2 87 LegendMM 1 10   100.85     LegendNANA
19:00 4.8 3.4 90 LegendMM 2 13   100.85     LegendNANA
20:00 4.1 3.3 94 LegendMM 3 9   100.89     LegendNANA
21:00 4.0 3.4 96 LegendMM 3 11   100.89     LegendNANA
22:00 4.1 3.6 97 LegendMM 3 8   100.88     LegendNANA
23:00 4.5 4.1 97 LegendMM 3 10   100.89     LegendNANA

Notes on Data Quality.

Legend

  • E = Estimated
  • M = Missing
  • NA = Not Available*
  • [empty] = Indicates an unobserved value
Date modified: